Regional Weather Roundup
Issued by NWS

Home | Current Version | Previous Version | Text Only | Print | Product List | Glossary On
Versions: 1 2 3 4 5 6 7 8 9 10 11 12 13 14 15 16 17 18 19 20 21 22 23 24 25 26 27 28 29 30 31 32 33 34 35 36 37 38 39 40 41 42 43 44 45 46 47 48 49 50
000
ASUS43 KMKX 131820
RWRWI

WISCONSIN REGIONAL WEATHER ROUNDUP
NATIONAL WEATHER SERVICE MILWAUKEE/SULLIVAN WI
1200 PM CST SAT FEB 13 2016

NOTE: "FAIR" INDICATES FEW OR NO CLOUDS BELOW 12,000 FEET WITH NO
SIGNIFICANT WEATHER AND/OR OBSTRUCTIONS TO VISIBILITY.

WIZ001-002-006>008-014>016-023>028-131900-
NORTHWEST WISCONSIN

CITY           SKY/WX    TMP DP  RH WIND       PRES   REMARKS
SUPERIOR ARPT  SUNNY      1 -14  49 SW7       30.59F WCI -11
6HR MIN TEMP: -14; 6HR MAX TEMP:   1;

ASHLAND        SUNNY      1 -11  57 S8        30.56F WCI -13
6HR MIN TEMP: -14; 6HR MAX TEMP:   1;

HAYWARD        SUNNY      1 -14  49 VRB3      30.53F
6HR MIN TEMP: -20; 6HR MAX TEMP:   2;

SIREN          SUNNY      2 -14  46 SW3       30.58F
6HR MIN TEMP: -19; 6HR MAX TEMP:   2;

CUMBERLAND     SUNNY      0 -15  50 S3        30.55F
RICE LAKE      SUNNY      0 -14  52 CALM      30.59F
6HR MIN TEMP: -14; 6HR MAX TEMP:   0;

CHETEK         SUNNY      1 -14  48 CALM      30.58F
6HR MIN TEMP: -15; 6HR MAX TEMP:   1;

LADYSMITH      SUNNY      2 -13  47 W3        30.56F
6HR MIN TEMP: -16; 6HR MAX TEMP:   2;

EAU CLAIRE     SUNNY      1 -13  51 W5        30.59F WCI  -9
6HR MIN TEMP: -13; 6HR MAX TEMP:   1;

MENOMONIE      SUNNY     14 -13  29 CALM      30.60F
6HR MIN TEMP:  -9; 6HR MAX TEMP:  15;

NEW RICHMOND   SUNNY      2 -13  50 CALM      30.60F
6HR MIN TEMP: -13; 6HR MAX TEMP:   2;

OSCEOLA        SUNNY      3 -11  53 CALM      30.63F
6HR MIN TEMP: -10; 6HR MAX TEMP:   3;

$$

WIZ003>005-009-010-017-018-131900-
NORTH CENTRAL WISCONSIN

CITY           SKY/WX    TMP DP  RH WIND       PRES   REMARKS
MANITOWISH WTR MOSUNNY    3  -6  64 W7        30.43F WCI  -9
6HR MIN TEMP: -14; 6HR MAX TEMP:   3;

ARBOR VITAE    SUNNY      5  -5  62 N7        30.43F WCI  -7
6HR MIN TEMP:  -9; 6HR MAX TEMP:   5;

WOODRUFF       SUNNY      5  -5  62 N7        30.43F WCI  -7
6HR MIN TEMP:  -9; 6HR MAX TEMP:   5;

RHINELANDER    SUNNY      4  -7  60 VRB7      30.44F WCI  -8
6HR MIN TEMP: -13; 6HR MAX TEMP:   5;

EAGLE RIVER    MOSUNNY    4  -8  57 N6        30.41F WCI  -6
LAND O LAKES   CLOUDY     6  -4  62 NW8       30.41F WCI  -7
6HR MIN TEMP:  -6; 6HR MAX TEMP:   7;

PHILLIPS       SUNNY      1 -11  58 NW6       30.48F WCI -11
6HR MIN TEMP: -17; 6HR MAX TEMP:   1;

TOMAHAWK       SUNNY      3  -9  58 NW7       30.48F WCI -10
6HR MIN TEMP: -13; 6HR MAX TEMP:   3;

MEDFORD        SUNNY      2 -11  54 W5        30.49F WCI  -8
6HR MIN TEMP: -14; 6HR MAX TEMP:   2;

MERRILL        SUNNY      4  -9  55 NW6       30.49F WCI  -7
$$

WIZ029-030-035-036-043>047-131900-
CENTRAL WISCONSIN

CITY           SKY/WX    TMP DP  RH WIND       PRES   REMARKS
WAUSAU         SUNNY      4  -9  55 NW7       30.50F WCI  -8
6HR MIN TEMP:  -9; 6HR MAX TEMP:   4;

MOSINEE        SUNNY      1  -9  60 NW9       30.52F WCI -14
MARSHFIELD     SUNNY      1 -12  54 W8        30.51F WCI -13
6HR MIN TEMP: -11; 6HR MAX TEMP:   1;

STEVENS POINT  SUNNY      4 -11  50 W10       30.52F WCI -11
6HR MIN TEMP: -10; 6HR MAX TEMP:   4;

WAUPACA        SUNNY     11  -9  39 W6        30.55F WCI   2
6HR MIN TEMP:  -4; 6HR MAX TEMP:  11;

WAUTOMA        SUNNY      7 -10  45 W10       30.56F WCI  -7
6HR MIN TEMP:  -9; 6HR MAX TEMP:   7;

WISC RAPIDS    SUNNY      5 -11  47 N7        30.55F WCI  -7
6HR MIN TEMP:  -9; 6HR MAX TEMP:   5;

CAMP DOUGLAS   SUNNY      5 -11  47 W8        30.57F WCI  -8
$$

WIZ011>013-019>022-031-037>040-048>050-131900-
NORTHEAST WISCONSIN

CITY           SKY/WX    TMP DP  RH WIND       PRES   REMARKS
ANTIGO         SUNNY      3  -7  60 NW8       30.44F WCI -10
6HR MIN TEMP: -12; 6HR MAX TEMP:   3;

SHAWANO        SUNNY     10  -7  47 NW6       30.52F WCI   0
6HR MIN TEMP:  -4; 6HR MAX TEMP:  10;

OCONTO         SUNNY      8  -7  48 NW8       30.52F WCI  -4
6HR MIN TEMP:  -6; 6HR MAX TEMP:   8;

STURGEON BAY   SUNNY      9  -8  47 NW12      30.51F WCI  -6
6HR MIN TEMP:  -6; 6HR MAX TEMP:   7;

GREEN BAY      SUNNY      6  -7  54 NW13      30.53F WCI -10
6HR MIN TEMP:  -5; 6HR MAX TEMP:   7;

MANITOWOC      SUNNY      8  -6  52 N15       30.53F WCI  -9
6HR MIN TEMP:  -4; 6HR MAX TEMP:   9;

APPLETON       MOSUNNY    7 -11  43 W6        30.52F WCI  -3
CLINTONVILLE   SUNNY      9  -8  47 NW8       30.53F WCI  -4
OSHKOSH        SUNNY      5  -7  57 W8        30.55F WCI  -8
6HR MIN TEMP:  -6; 6HR MAX TEMP:   5;

$$

WIZ032>034-041-042-053>061-131900-
SOUTHWEST WISCONSIN

CITY           SKY/WX    TMP DP  RH WIND       PRES   REMARKS
LA CROSSE      SUNNY      6 -11  45 NW5       30.63F WCI  -3
6HR MIN TEMP:  -8; 6HR MAX TEMP:   6;

SPARTA         SUNNY      5 -12  45 CALM      30.60F
6HR MIN TEMP: -17; 6HR MAX TEMP:   6;

VIROQUA        SUNNY      4 -12  47 CALM      30.54F
6HR MIN TEMP:  -9; 6HR MAX TEMP:   4;

BOSCOBEL       SUNNY     10 -12  36 CALM      30.62F
6HR MIN TEMP: -11; 6HR MAX TEMP:  10; 6HR PCP: TRACE;

PRAIRIE DU CHI SUNNY      7 -13  39 NW3       30.62F
6HR MIN TEMP:  -6; 6HR MAX TEMP:   7;

PLATTEVILLE    SUNNY      5  -8  52 CALM      30.58F
6HR MIN TEMP:  -4; 6HR MAX TEMP:   5;

$$

WIZ056-057-062-063-064-067-068-131900-
SOUTH CENTRAL WISCONSIN

CITY           SKY/WX    TMP DP  RH WIND       PRES   REMARKS
REEDSBURG      SUNNY      4 -11  50 W6        30.58F WCI  -7
6HR MIN TEMP:  -7; 6HR MAX TEMP:   4;

BARABOO/DELLS  SUNNY      5 -12  46 W9        30.56F WCI  -9
6HR MIN TEMP:  -5; 6HR MAX TEMP:   5;

LONE ROCK      SUNNY      6 -10  47 W6        30.61F WCI  -4
6HR MIN TEMP:  -7; 6HR MAX TEMP:   6;

MINERAL POINT  SUNNY      5  -9  51 W5        30.56F WCI  -4
MADISON        SUNNY      5 -10  50 NW7       30.58F WCI  -7
6HR MIN TEMP:  -3; 6HR MAX TEMP:   5;

MIDDLETON      SUNNY      8  -9  45 W6        30.58F WCI  -2
6HR MIN TEMP:  -2; 6HR MAX TEMP:   8;

WATERTOWN      SUNNY      7  -7  54 W8        30.57F WCI  -6
6HR MIN TEMP:  -3; 6HR MAX TEMP:   7;

MONROE         SUNNY     10  -8  44 N7        30.55F WCI   0
JANESVILLE     SUNNY     10  -8  44 NW9       30.59F WCI  -2
$$

WIZ051-052-058>065-066-070>072-131900-
SOUTHEAST WISCONSIN

CITY           SKY/WX    TMP DP  RH WIND       PRES   REMARKS
MILWAUKEE      MOSUNNY   10  -9  42 NW13      30.56F WCI  -5
6HR MIN TEMP:   0; 6HR MAX TEMP:  10;

WAUKESHA       SUNNY      3  -9  55 NW14      30.56F WCI -15
MILWAUKEE/TIMM SUNNY      9  -9  43 NW9       30.57F WCI  -5
RACINE         SUNNY     10  -8  44 W14       30.58S WCI  -6
6HR MIN TEMP:   0; 6HR MAX TEMP:  10;

BURLINGTON     SUNNY      8  -9  45 NW8       30.57F WCI  -4
6HR MIN TEMP:  -3; 6HR MAX TEMP:   8;

KENOSHA        SUNNY     10  -6  48 W13       30.57S WCI  -5
6HR MIN TEMP:   0; 6HR MAX TEMP:  10;

FOND DU LAC    SUNNY      6  -7  54 NW8       30.56F WCI  -7
6HR MIN TEMP:  -4; 6HR MAX TEMP:   6;

SHEBOYGAN      SUNNY      6  -7  54 NW10      30.54F WCI  -9
6HR MIN TEMP:  -3; 6HR MAX TEMP:   6;

WEST BEND      SUNNY      7  -8  51 NW10      30.54F WCI  -8
JUNEAU         SUNNY      4  -8  57 W6        30.57F WCI  -7
6HR MIN TEMP:  -5; 6HR MAX TEMP:   4;

$$

LSZ147-162-131900-
LAKE SUPERIOR

STATION/POSITION TIME  TEMP    WIND        PRES    WAVE
                       AIR SEA DIR/SP/G            HT/PER
                 (UTC) (F)     (DEG/KT/KT) (MB)    (FT/S)
DEVILS ISLAND    1800    4     280/  6/  9 1036.6F
SAXON HARBOR     1740    3                 1034.9F
$$

LMZ867-665-643>646-131900-
LAKE MICHIGAN

STATION/POSITION TIME  TEMP    WIND        PRES    WAVE
                       AIR SEA DIR/SP/G            HT/PER
                 (UTC) (F)     (DEG/KT/KT) (MB)    (FT/S)
CHAMBERS ISLAND  1700    9     300/ 12/ 18 1032.8R
SISTER BAY       1719   11     330/ 20/ 23   N/A
ALGOMA LAKESHORE 1711          320/ 12/ 18   N/A
KEWAUNEE LAKESC1F1C2F2C3F3C4F4C5F5C6F6C7F7C8M1C9M2Ca!


USA.gov is the U.S. government's official web portal to all federal, state and local government web resources and services.